Printer-friendly version

IAU Minor Planet Center

Minor Planet Center

128P/Shoemaker-Holt

Orbital Elements

The following orbital elements are taken from MPC 51822:
128P/Shoemaker-Holt
Epoch 2007 June 29.0 TT = JDT 2454280.5
T 2007 June 13.6505 TT                                  MPC
q   3.068926             (2000.0)            P               Q
n   0.1028238      Peri.  210.4481      +0.4255220      -0.9039293
a   4.512393       Node   214.4205      +0.8448307      +0.4138078
e   0.319889       Incl.    4.3554      +0.3243333      +0.1080504
P   9.59
From 282 observations 1987-1999, mean residual 0".8.
Elements are also available for the current standard epoch:
128P/Shoemaker-Holt
Epoch 2010 Jan. 4.0 TT = JDT 2455200.5
T 2007 June 13.4842 TT                                  MPC
q   3.064743             (2000.0)            P               Q
n   0.1028853      Peri.  210.3538      +0.4278889      -0.9028128
a   4.510596       Node   214.3648      +0.8437765      +0.4160195
e   0.320546       Incl.    4.3585      +0.3239635      +0.1088889
P   9.58
An explanation of the orbital elements is available.

These orbital elements are also available in forms suitable for loading into a number of popular planetarium-type software programs.


Ephemeris

The following ephemeris is at intervals of five days. A daily ephemeris covering the same time interval is also available.

Personalized ephemerides for this (and other) objects may be generated using the Minor Planet & Comet Ephemeris Service.

Recent magnitude estimates for this comet (as reported to the ICQ) may be available.

Date    TT    R. A. (2000) Decl.     Delta      r     Elong.  Phase   m1    m2

WARNING!

This comet gets close to the sun during the period covered in the ephemeris below. Observers are warned to be wary of observing comets near the sun. NEVER point any kind of optical instrument at the sun--instant blindness will be the probable result.

2009 10 26 12 43.58 -06 25.4 5.846 4.925 20.1 4.0 19.3 21.7 2009 10 31 12 47.74 -06 50.7 5.827 4.936 24.0 4.7 19.3 21.7 2009 11 05 12 51.83 -07 15.5 5.802 4.947 27.9 5.4 19.3 21.7 2009 11 10 12 55.84 -07 39.7 5.773 4.959 31.8 6.0 19.3 21.8 2009 11 15 12 59.75 -08 03.2 5.738 4.970 35.8 6.7 19.3 21.8 2009 11 20 13 03.54 -08 26.0 5.700 4.981 39.8 7.3 19.3 21.8 2009 11 25 13 07.22 -08 47.9 5.656 4.992 43.9 7.9 19.2 21.8 2009 11 30 13 10.76 -09 08.9 5.609 5.003 48.0 8.4 19.2 21.8 2009 12 05 13 14.15 -09 28.9 5.558 5.014 52.2 8.9 19.2 21.8 2009 12 10 13 17.38 -09 47.9 5.503 5.025 56.4 9.4 19.2 21.8 2009 12 15 13 20.43 -10 05.7 5.445 5.036 60.7 9.8 19.2 21.8 2009 12 20 13 23.29 -10 22.3 5.383 5.047 65.0 10.2 19.2 21.8 2009 12 25 13 25.94 -10 37.6 5.319 5.057 69.4 10.5 19.2 21.8 2009 12 30 13 28.36 -10 51.5 5.253 5.068 73.8 10.7 19.2 21.8 2010 01 04 13 30.55 -11 04.0 5.185 5.079 78.3 10.9 19.1 21.8 2010 01 09 13 32.48 -11 14.9 5.116 5.089 82.9 11.1 19.1 21.8 2010 01 14 13 34.14 -11 24.3 5.046 5.100 87.6 11.1 19.1 21.7 2010 01 19 13 35.52 -11 31.9 4.975 5.110 92.3 11.1 19.1 21.7 2010 01 24 13 36.60 -11 37.8 4.905 5.121 97.1 11.0 19.0 21.7 2010 01 29 13 37.37 -11 41.9 4.835 5.131 102.0 10.8 19.0 21.7 2010 02 03 13 37.83 -11 44.2 4.767 5.141 107.0 10.6 19.0 21.6 2010 02 08 13 37.97 -11 44.6 4.700 5.151 112.0 10.2 19.0 21.6 2010 02 13 13 37.78 -11 43.1 4.637 5.162 117.1 9.8 19.0 21.5 2010 02 18 13 37.27 -11 39.6 4.576 5.172 122.3 9.3 18.9 21.5 2010 02 23 13 36.45 -11 34.3 4.519 5.182 127.5 8.7 18.9 21.4 2010 02 28 13 35.31 -11 27.0 4.467 5.192 132.9 8.0 18.9 21.4 2010 03 05 13 33.89 -11 17.9 4.420 5.202 138.3 7.3 18.9 21.3 2010 03 10 13 32.19 -11 07.1 4.378 5.212 143.7 6.5 18.9 21.3 2010 03 15 13 30.25 -10 54.6 4.342 5.221 149.2 5.6 18.9 21.2 2010 03 20 13 28.09 -10 40.7 4.313 5.231 154.8 4.7 18.9 21.2 2010 03 25 13 25.75 -10 25.5 4.291 5.241 160.4 3.7 18.9 21.1 2010 03 30 13 23.28 -10 09.3 4.276 5.250 166.0 2.6 18.9 21.0 2010 04 04 13 20.71 -09 52.2 4.269 5.260 171.5 1.6 18.9 21.0 2010 04 09 13 18.09 -09 34.6 4.269 5.269 177.0 0.6 18.9 20.9 2010 04 14 13 15.47 -09 16.8 4.277 5.279 176.9 0.6 18.9 20.9 2010 04 19 13 12.88 -08 58.9 4.293 5.288 171.4 1.6 18.9 21.0 2010 04 24 13 10.38 -08 41.4 4.317 5.298 165.9 2.6 18.9 21.1 2010 04 29 13 08.01 -08 24.5 4.347 5.307 160.4 3.6 18.9 21.2 2010 05 04 13 05.80 -08 08.4 4.385 5.316 155.0 4.6 19.0 21.2 2010 05 09 13 03.78 -07 53.4 4.430 5.325 149.6 5.5 19.0 21.3 2010 05 14 13 01.98 -07 39.6 4.481 5.334 144.2 6.4 19.0 21.4 2010 05 19 13 00.42 -07 27.4 4.538 5.343 139.0 7.1 19.1 21.4 2010 05 24 12 59.13 -07 16.7 4.601 5.352 133.8 7.8 19.1 21.5 2010 05 29 12 58.12 -07 07.7 4.668 5.361 128.7 8.5 19.1 21.6 2010 06 03 12 57.38 -07 00.5 4.740 5.370 123.7 9.0 19.2 21.6 2010 06 08 12 56.93 -06 55.1 4.816 5.378 118.8 9.5 19.2 21.7 2010 06 13 12 56.77 -06 51.5 4.894 5.387 114.0 9.9 19.3 21.7 2010 06 18 12 56.89 -06 49.7 4.976 5.396 109.2 10.2 19.3 21.8 2010 06 23 12 57.29 -06 49.8 5.059 5.404 104.5 10.5 19.3 21.9 2010 06 28 12 57.97 -06 51.6 5.144 5.413 99.9 10.7 19.4 21.9 2010 07 03 12 58.91 -06 55.1 5.230 5.421 95.4 10.8 19.4 21.9 2010 07 08 13 00.10 -07 00.3 5.317 5.430 90.9 10.8 19.5 22.0 2010 07 13 13 01.53 -07 07.0 5.404 5.438 86.5 10.8 19.5 22.0 2010 07 18 13 03.20 -07 15.1 5.490 5.446 82.2 10.7 19.6 22.1 2010 07 23 13 05.08 -07 24.7 5.576 5.454 77.9 10.5 19.6 22.1 2010 07 28 13 07.17 -07 35.6 5.660 5.462 73.7 10.3 19.6 22.1 2010 08 02 13 09.46 -07 47.6 5.743 5.470 69.5 10.0 19.7 22.1 2010 08 07 13 11.93 -08 00.8 5.823 5.478 65.4 9.7 19.7 22.2 2010 08 12 13 14.57 -08 15.1 5.901 5.486 61.3 9.3 19.7 22.2 2010 08 17 13 17.38 -08 30.2 5.976 5.494 57.2 8.9 19.8 22.2 2010 08 22 13 20.33 -08 46.2 6.048 5.502 53.2 8.5 19.8 22.2 2010 08 27 13 23.42 -09 03.0 6.117 5.510 49.2 8.0 19.8 22.2 2010 09 01 13 26.64 -09 20.4 6.182 5.517 45.2 7.5 19.9 22.2 2010 09 06 13 29.97 -09 38.5 6.243 5.525 41.2 6.9 19.9 22.2 2010 09 11 13 33.42 -09 57.0 6.300 5.533 37.3 6.3 19.9 22.2 2010 09 16 13 36.96 -10 16.0 6.353 5.540 33.3 5.7 19.9 22.2 2010 09 21 13 40.58 -10 35.3 6.400 5.547 29.4 5.1 20.0 22.2 2010 09 26 13 44.28 -10 54.8 6.443 5.555 25.5 4.4 20.0 22.2 2010 10 01 13 48.05 -11 14.6 6.481 5.562 21.5 3.8 20.0 22.1 2010 10 06 13 51.88 -11 34.5 6.514 5.569 17.6 3.1 20.0 22.1 2010 10 11 13 55.76 -11 54.4 6.541 5.576 13.7 2.4 20.0 22.1 2010 10 16 13 59.68 -12 14.3 6.563 5.583 9.7 1.7 20.1 22.0 2010 10 21 14 03.62 -12 34.0 6.580 5.590 5.8 1.0 20.1 22.0 2010 10 26 14 07.58 -12 53.7 6.591 5.597 1.8 0.3 20.1 21.9 2010 10 31 14 11.55 -13 13.1 6.596 5.604 2.1 0.4 20.1 21.9 2010 11 05 14 15.52 -13 32.2 6.596 5.611 6.1 1.1 20.1 22.0 2010 11 10 14 19.48 -13 50.9 6.590 5.618 10.1 1.8 20.1 22.1 2010 11 15 14 23.41 -14 09.2 6.578 5.624 14.2 2.5 20.1 22.1 2010 11 20 14 27.31 -14 27.1 6.561 5.631 18.2 3.1 20.1 22.2 2010 11 25 14 31.16 -14 44.4 6.539 5.638 22.3 3.8 20.1 22.2 2010 11 30 14 34.95 -15 01.1 6.511 5.644 26.4 4.5 20.1 22.2

Valid HTML 4.01!